When you browse on this site, cookies collect data to enhance your experience and personalize the content and advertising you see.
Visit our Privacy Policy to learn more. By continuing to use the site, you agree to this use of cookies and data.
  • In Österreich
  • Länderverzeichnis
  • Für 7 Tage
  • Wassertemperatur
  • Satellitenkarten
  • Wetterkarte
  • News
  • Widgets
  • user-avatar
    Anmelden

    Stündliche Wetter Rohivka

    Heute, 20 Mai, Montag

    Zeit Temperatur Niederschläge Wind Luftdruck Luftfeuchtigkeit
    00:00 +14°C° 0 mm 4 m/S 745 mmHg 69%
    01:00 +14°C° 0 mm 4 m/S 745 mmHg 68%
    02:00 +14°C° 0 mm 2 m/S 745 mmHg 65%
    03:00 +14°C° 0 mm 2 m/S 745 mmHg 69%
    04:00 +13°C° 0 mm 3 m/S 745 mmHg 72%
    05:00 +13°C° 0 mm 3 m/S 746 mmHg 75%
    06:00 +15°C° 0 mm 4 m/S 746 mmHg 71%
    07:00 +18°C° 0 mm 4 m/S 746 mmHg 67%
    08:00 +21°C° 0 mm 5 m/S 747 mmHg 62%
    09:00 +21°C° 0 mm 5 m/S 747 mmHg 58%
    10:00 +22°C° 0 mm 5 m/S 747 mmHg 53%
    11:00 +23°C° 0 mm 5 m/S 747 mmHg 49%
    12:00 +23°C° 0 mm 5 m/S 747 mmHg 48%
    13:00 +23°C° 0 mm 5 m/S 747 mmHg 47%
    14:00 +25°C° 0 mm 5 m/S 746 mmHg 46%
    15:00 +23°C° 0 mm 5 m/S 746 mmHg 50%
    16:00 +23°C° 0 mm 5 m/S 746 mmHg 54%
    17:00 +22°C° 0 mm 4 m/S 746 mmHg 57%
    18:00 +20°C° 0 mm 4 m/S 746 mmHg 60%
    19:00 +19°C° 0 mm 4 m/S 746 mmHg 62%
    20:00 +17°C° 0 mm 4 m/S 746 mmHg 65%
    21:00 +15°C° 0 mm 4 m/S 746 mmHg 65%
    22:00 +15°C° 0 mm 4 m/S 747 mmHg 65%
    23:00 +14°C° 0 mm 4 m/S 747 mmHg 65%

    Morgen, 21 Mai, Dienstag

    Zeit Temperatur Niederschläge Wind Luftdruck Luftfeuchtigkeit
    00:00 +14°C° 0 mm 5 m/S 747 mmHg 65%
    01:00 +13°C° 0 mm 5 m/S 747 mmHg 65%
    02:00 +13°C° 0 mm 5 m/S 747 mmHg 65%
    03:00 +13°C° 0 mm 5 m/S 747 mmHg 66%
    04:00 +12°C° 0 mm 5 m/S 747 mmHg 68%
    05:00 +12°C° 0 mm 5 m/S 747 mmHg 69%
    06:00 +14°C° 0 mm 5 m/S 747 mmHg 67%
    07:00 +16°C° 0 mm 6 m/S 747 mmHg 64%
    08:00 +19°C° 0 mm 6 m/S 747 mmHg 61%
    09:00 +20°C° 0 mm 6 m/S 746 mmHg 58%
    10:00 +21°C° 0 mm 6 m/S 746 mmHg 55%
    11:00 +22°C° 0 mm 6 m/S 746 mmHg 52%
    12:00 +23°C° 0 mm 6 m/S 746 mmHg 52%
    13:00 +23°C° 0 mm 6 m/S 746 mmHg 51%
    14:00 +23°C° 0 mm 6 m/S 745 mmHg 51%
    15:00 +23°C° 0 mm 5 m/S 745 mmHg 56%
    16:00 +22°C° 0 mm 4 m/S 745 mmHg 60%
    17:00 +21°C° 0 mm 3 m/S 744 mmHg 64%
    18:00 +20°C° 0.1 mm 3 m/S 744 mmHg 67%
    19:00 +19°C° 0.1 mm 3 m/S 744 mmHg 69%
    20:00 +18°C° 0.1 mm 3 m/S 744 mmHg 72%
    21:00 +18°C° 0.2 mm 4 m/S 744 mmHg 75%
    22:00 +17°C° 0.2 mm 4 m/S 744 mmHg 79%
    23:00 +17°C° 0.2 mm 4 m/S 744 mmHg 83%

    übermorgen, 22 Mai, Mittwoch

    Zeit Temperatur Niederschläge Wind Luftdruck Luftfeuchtigkeit
    00:00 +17°C° 0 mm 4 m/S 743 mmHg 83%
    01:00 +15°C° 0 mm 4 m/S 743 mmHg 83%
    02:00 +15°C° 0 mm 4 m/S 743 mmHg 83%
    03:00 +15°C° 0.1 mm 4 m/S 743 mmHg 84%
    04:00 +14°C° 0.1 mm 4 m/S 743 mmHg 85%
    05:00 +14°C° 0.1 mm 4 m/S 743 mmHg 86%
    06:00 +15°C° 0 mm 4 m/S 742 mmHg 81%
    07:00 +17°C° 0 mm 5 m/S 742 mmHg 76%
    08:00 +19°C° 0 mm 5 m/S 742 mmHg 72%
    09:00 +20°C° 0.1 mm 5 m/S 742 mmHg 70%
    10:00 +21°C° 0.1 mm 6 m/S 742 mmHg 69%
    11:00 +22°C° 0.1 mm 6 m/S 742 mmHg 67%
    12:00 +22°C° 0.6 mm 5 m/S 741 mmHg 66%
    13:00 +22°C° 0.6 mm 5 m/S 741 mmHg 65%
    14:00 +23°C° 0.6 mm 4 m/S 741 mmHg 64%
    15:00 +22°C° 0.7 mm 4 m/S 741 mmHg 65%
    16:00 +22°C° 0.7 mm 3 m/S 740 mmHg 66%
    17:00 +22°C° 0.7 mm 3 m/S 740 mmHg 68%
    18:00 +20°C° 0.3 mm 2 m/S 740 mmHg 72%
    19:00 +18°C° 0.3 mm 2 m/S 740 mmHg 77%
    20:00 +18°C° 0.3 mm 1 m/S 740 mmHg 81%
    21:00 +16°C° 0 mm 1 m/S 740 mmHg 82%
    22:00 +16°C° 0 mm 1 m/S 740 mmHg 83%
    23:00 +15°C° 0 mm 1 m/S 740 mmHg 84%

    23 Mai, Donnerstag

    Zeit Temperatur Niederschläge Wind Luftdruck Luftfeuchtigkeit
    00:00 +15°C° 0 mm 1 m/S 740 mmHg 84%
    01:00 +14°C° 0 mm 1 m/S 740 mmHg 85%
    02:00 +14°C° 0 mm 1 m/S 740 mmHg 86%
    03:00 +14°C° 0 mm 1 m/S 740 mmHg 87%
    04:00 +14°C° 0 mm 1 m/S 740 mmHg 88%
    05:00 +15°C° 0 mm 1 m/S 740 mmHg 89%
    06:00 +16°C° 0 mm 1 m/S 740 mmHg 84%
    07:00 +19°C° 0 mm 1 m/S 740 mmHg 78%
    08:00 +21°C° 0 mm 1 m/S 740 mmHg 73%
    09:00 +22°C° 0 mm 1 m/S 740 mmHg 67%
    10:00 +23°C° 0 mm 1 m/S 740 mmHg 62%
    11:00 +24°C° 0 mm 2 m/S 740 mmHg 56%
    12:00 +24°C° 0.6 mm 2 m/S 740 mmHg 56%
    13:00 +25°C° 0.6 mm 2 m/S 740 mmHg 57%
    14:00 +25°C° 0.6 mm 3 m/S 740 mmHg 57%
    15:00 +25°C° 0.9 mm 2 m/S 740 mmHg 61%
    16:00 +24°C° 0.9 mm 2 m/S 740 mmHg 65%
    17:00 +23°C° 0.9 mm 2 m/S 739 mmHg 69%
    18:00 +21°C° 0 mm 2 m/S 740 mmHg 71%
    19:00 +21°C° 0 mm 1 m/S 740 mmHg 74%
    20:00 +20°C° 0 mm 1 m/S 740 mmHg 76%
    21:00 +19°C° 0 mm 1 m/S 740 mmHg 78%
    22:00 +18°C° 0 mm 2 m/S 740 mmHg 80%
    23:00 +17°C° 0 mm 2 m/S 740 mmHg 82%

    24 Mai, Freitag

    Zeit Temperatur Niederschläge Wind Luftdruck Luftfeuchtigkeit
    00:00 +17°C° 0 mm 2 m/S 740 mmHg 82%
    01:00 +16°C° 0 mm 2 m/S 740 mmHg 83%
    02:00 +16°C° 0 mm 2 m/S 740 mmHg 84%
    03:00 +16°C° 0 mm 2 m/S 740 mmHg 84%
    04:00 +16°C° 0 mm 2 m/S 740 mmHg 85%
    05:00 +16°C° 0 mm 2 m/S 740 mmHg 85%
    06:00 +18°C° 0.2 mm 2 m/S 740 mmHg 80%
    07:00 +20°C° 0.2 mm 3 m/S 740 mmHg 75%
    08:00 +22°C° 0.2 mm 3 m/S 740 mmHg 70%
    09:00 +22°C° 1.4 mm 3 m/S 740 mmHg 67%
    10:00 +23°C° 1.4 mm 4 m/S 740 mmHg 63%
    11:00 +25°C° 1.4 mm 4 m/S 740 mmHg 60%
    12:00 +25°C° 0.5 mm 4 m/S 740 mmHg 59%
    13:00 +25°C° 0.5 mm 4 m/S 739 mmHg 59%
    14:00 +26°C° 0.5 mm 4 m/S 739 mmHg 58%
    15:00 +25°C° 0.8 mm 3 m/S 739 mmHg 62%
    16:00 +25°C° 0.8 mm 3 m/S 739 mmHg 67%
    17:00 +24°C° 0.8 mm 2 m/S 739 mmHg 71%
    18:00 +23°C° 0.1 mm 2 m/S 739 mmHg 74%
    19:00 +20°C° 0.1 mm 2 m/S 739 mmHg 77%
    20:00 +18°C° 0.1 mm 2 m/S 739 mmHg 80%
    21:00 +18°C° 0.1 mm 2 m/S 739 mmHg 82%
    22:00 +18°C° 0.1 mm 2 m/S 739 mmHg 84%
    23:00 +17°C° 0.1 mm 3 m/S 738 mmHg 85%

    25 Mai, Samstag

    Zeit Temperatur Niederschläge Wind Luftdruck Luftfeuchtigkeit
    00:00 +17°C° 0.4 mm 2 m/S 738 mmHg 87%
    01:00 +17°C° 0.4 mm 2 m/S 738 mmHg 88%
    02:00 +17°C° 0.4 mm 2 m/S 738 mmHg 89%
    03:00 +17°C° 0 mm 2 m/S 738 mmHg 90%
    04:00 +17°C° 0 mm 2 m/S 738 mmHg 91%
    05:00 +16°C° 0 mm 2 m/S 738 mmHg 91%
    06:00 +18°C° 0.1 mm 3 m/S 738 mmHg 85%
    07:00 +19°C° 0.1 mm 3 m/S 738 mmHg 79%
    08:00 +21°C° 0.1 mm 3 m/S 738 mmHg 72%
    09:00 +21°C° 0.1 mm 3 m/S 738 mmHg 69%
    10:00 +22°C° 0.1 mm 3 m/S 737 mmHg 65%
    11:00 +22°C° 0.1 mm 3 m/S 737 mmHg 62%
    12:00 +24°C° 0.1 mm 3 m/S 737 mmHg 61%
    13:00 +24°C° 0.1 mm 3 m/S 736 mmHg 59%
    14:00 +25°C° 0.1 mm 3 m/S 736 mmHg 58%
    15:00 +24°C° 0.7 mm 3 m/S 736 mmHg 64%
    16:00 +23°C° 0.7 mm 2 m/S 735 mmHg 71%
    17:00 +21°C° 0.7 mm 2 m/S 735 mmHg 78%
    18:00 +20°C° 0.5 mm 2 m/S 735 mmHg 82%
    19:00 +19°C° 0.5 mm 2 m/S 735 mmHg 86%
    20:00 +19°C° 0.5 mm 1 m/S 735 mmHg 90%
    21:00 +18°C° 0 mm 1 m/S 735 mmHg 91%
    22:00 +18°C° 0 mm 1 m/S 735 mmHg 92%
    23:00 +18°C° 0 mm 1 m/S 735 mmHg 92%
    Mehr zeigen